Weather History for KAIT - January, 2013

Change the Weather History Date:

Saturday, January 19, 2013

  Actual Average Record
Temperature  
Mean Temperature 16 °F -  
Max Temperature 32 °F 19 °F 40 °F (1981)
Min Temperature 0 °F -2 °F -34 °F (1970)
Degree Days  
Heating Degree Days 49    
Moisture  
Dew Point 7 °F    
Average Humidity 68    
Maximum Humidity 86    
Minimum Humidity 44    
Precipitation  
Precipitation 0.00 in - - ()
Sea Level Pressure  
Sea Level Pressure 29.78 in    
Wind  
Wind Speed 6 mph (West)    
Max Wind Speed 21 mph    
Max Gust Speed 33 mph    
Visibility 8 miles    
Events Snow    
Averages and records for this station are not official NWS values.
T = Trace of Precipitation, MM = Missing Value Source: NWS Daily Summary

Daily Weather History Graph

Daily Weather History Graph

Search for Another Location

Airport or City:

Trip Planner

Search our weather history database for the weather conditions in past years. The results will help you decide how hot, cold, wet, or windy it might be!

Date:

Astronomy

Jan. 19, 2013 Rise Set
Actual Time 7:51 AM CST 5:00 PM CST
Civil Twilight 7:17 AM CST 5:33 PM CST
Nautical Twilight 6:40 AM CST 6:10 PM CST
Astronomical Twilight 6:04 AM CST 6:46 PM CST
Moon 11:30 AM CST (1/19) 1:21 AM CST (1/19)
Length of Visible Light 10h 15m
Length of Day
9h 08m
First Quarter, 57% of the Moon is Illuminated
Jan 19
First Quarter
Jan 26
Full
Feb 3
Last Quarter
Feb 10
New
Feb 17
First Quarter

Hourly Weather History & Observations

Time (CST) Temp. Windchill Dew Point Humidity Pressure Visibility Wind Dir Wind Speed Gust Speed Precip Events Conditions
12:13 AM 23.0 °F 18.4 °F 15.8 °F 74% 29.71 in 10.0 mi South 3.5 mph - N/A   Overcast
12:32 AM 23.0 °F - 15.8 °F 74% 29.70 in 10.0 mi Calm Calm - N/A   Overcast
12:53 AM 23.0 °F 17.0 °F 15.8 °F 74% 29.70 in 10.0 mi South 4.6 mph - N/A   Scattered Clouds
1:13 AM 23.0 °F 17.0 °F 17.6 °F 80% 29.67 in 10.0 mi SSE 4.6 mph - N/A   Scattered Clouds
1:32 AM 24.8 °F 17.9 °F 17.6 °F 74% 29.66 in 7.0 mi SSE 5.8 mph - N/A   Mostly Cloudy
1:53 AM 24.8 °F - 17.6 °F 74% 29.66 in 7.0 mi Calm Calm - N/A   Overcast
2:13 AM 24.8 °F - 17.6 °F 74% 29.67 in 7.0 mi Calm Calm - N/A   Mostly Cloudy
2:32 AM 21.2 °F - 14.0 °F 74% 29.68 in 7.0 mi Calm Calm - N/A   Scattered Clouds
2:53 AM 21.2 °F - 15.8 °F 80% 29.67 in 5.0 mi Calm Calm - N/A   Haze
3:13 AM 21.2 °F - 15.8 °F 80% 29.67 in 5.0 mi Calm Calm - N/A   Haze
3:32 AM 21.2 °F - 15.8 °F 80% 29.66 in 5.0 mi Calm Calm - N/A   Haze
3:53 AM 19.4 °F - 15.8 °F 86% 29.66 in 5.0 mi Calm Calm - N/A   Haze
4:13 AM 21.2 °F 16.4 °F 15.8 °F 80% 29.66 in 5.0 mi SSW 3.5 mph - N/A   Haze
4:32 AM 21.2 °F - 15.8 °F 80% 29.65 in 5.0 mi Calm Calm - N/A   Haze
4:53 AM 21.2 °F - 15.8 °F 80% 29.64 in 5.0 mi Calm Calm - N/A   Haze
5:13 AM 19.4 °F - 15.8 °F 86% 29.64 in 5.0 mi Calm Calm - N/A   Haze
5:32 AM 19.4 °F - 12.2 °F 74% 29.64 in 4.0 mi Calm Calm - N/A   Haze
5:53 AM 17.6 °F - 12.2 °F 79% 29.63 in 4.0 mi Calm Calm - N/A   Haze
6:13 AM 17.6 °F - 10.4 °F 73% 29.63 in 3.0 mi Calm Calm - N/A   Haze
6:32 AM 15.8 °F - 10.4 °F 79% 29.63 in 3.0 mi Calm Calm - N/A   Haze
6:53 AM 14.0 °F - 8.6 °F 79% 29.62 in 4.0 mi Calm Calm - N/A   Haze
7:13 AM 14.0 °F - 8.6 °F 79% 29.61 in 4.0 mi Calm Calm - N/A   Haze
7:32 AM 19.4 °F 12.8 °F 12.2 °F 74% 29.61 in 4.0 mi SW 4.6 mph - N/A   Haze
7:53 AM 23.0 °F 18.4 °F 17.6 °F 80% 29.60 in 7.0 mi SW 3.5 mph - N/A   Clear
8:13 AM 24.8 °F 17.9 °F 19.4 °F 80% 29.61 in 7.0 mi WSW 5.8 mph - N/A   Clear
8:32 AM 24.8 °F 16.9 °F 19.4 °F 80% 29.62 in 7.0 mi West 6.9 mph - N/A   Clear
8:53 AM 26.6 °F 19.1 °F 19.4 °F 74% 29.63 in 7.0 mi West 6.9 mph - N/A   Scattered Clouds
9:32 AM 28.4 °F 23.3 °F 21.2 °F 74% 29.63 in 10.0 mi West 4.6 mph - N/A   Scattered Clouds
9:53 AM 28.4 °F 20.4 °F 21.2 °F 74% 29.63 in 10.0 mi West 8.1 mph - N/A   Scattered Clouds
10:13 AM 30.2 °F 21.9 °F 23.0 °F 75% 29.63 in 10.0 mi West 9.2 mph 18.4 mph N/A   Scattered Clouds
10:32 AM 30.2 °F 20.8 °F 23.0 °F 75% 29.64 in 10.0 mi WNW 11.5 mph 24.2 mph N/A   Mostly Cloudy
10:53 AM 32.0 °F 23.6 °F 23.0 °F 69% 29.65 in 10.0 mi West 10.4 mph 18.4 mph N/A   Overcast
11:13 AM 32.0 °F 22.5 °F 23.0 °F 69% 29.64 in 10.0 mi West 12.7 mph 18.4 mph N/A   Overcast
11:32 AM 32.0 °F 21.6 °F 23.0 °F 69% 29.63 in 10.0 mi West 15.0 mph 24.2 mph N/A   Mostly Cloudy
11:53 AM 32.0 °F 21.6 °F 17.6 °F 55% 29.63 in 10.0 mi WNW 15.0 mph 32.2 mph N/A   Mostly Cloudy
12:13 PM 30.2 °F 24.3 °F 17.6 °F 60% 29.63 in 10.0 mi West 5.8 mph 26.5 mph N/A   Overcast
12:33 PM 30.2 °F 20.2 °F 17.6 °F 60% 29.63 in 10.0 mi West 12.7 mph 24.2 mph N/A   Mostly Cloudy
12:53 PM 28.4 °F 20.4 °F 14.0 °F 55% 29.63 in 10.0 mi West 8.1 mph 23.0 mph N/A   Scattered Clouds
1:12 PM 28.4 °F 18.5 °F 12.2 °F 51% 29.64 in 10.0 mi West 11.5 mph 19.6 mph N/A   Scattered Clouds
1:33 PM 24.8 °F 13.4 °F 10.4 °F 54% 29.67 in 10.0 mi WNW 12.7 mph 24.2 mph N/A   Overcast
1:53 PM 21.2 °F 6.8 °F 8.6 °F 58% 29.70 in 10.0 mi WNW 17.3 mph 25.3 mph N/A Snow Light Snow
2:12 PM 17.6 °F 1.7 °F 3.2 °F 53% 29.72 in 7.0 mi WNW 18.4 mph 29.9 mph N/A   Overcast
2:33 PM 15.8 °F 0.3 °F 3.2 °F 58% 29.75 in 7.0 mi WNW 16.1 mph 24.2 mph N/A Snow Light Snow
2:52 PM 12.2 °F -4.8 °F -0.4 °F 57% 29.77 in 10.0 mi WNW 17.3 mph 29.9 mph N/A   Overcast
3:13 PM 12.2 °F -5.3 °F -0.4 °F 57% 29.78 in 7.0 mi West 18.4 mph 25.3 mph N/A   Overcast
3:33 PM 10.4 °F -7.2 °F -5.8 °F 48% 29.80 in 10.0 mi WNW 17.3 mph 27.6 mph N/A   Mostly Cloudy
3:52 PM 10.4 °F -7.2 °F -7.6 °F 44% 29.82 in 10.0 mi WNW 17.3 mph 32.2 mph N/A   Scattered Clouds
4:13 PM 8.6 °F -7.0 °F -7.6 °F 48% 29.84 in 10.0 mi NW 12.7 mph 25.3 mph N/A   Scattered Clouds
4:33 PM 6.8 °F -13.4 °F -9.4 °F 48% 29.87 in 10.0 mi WNW 20.7 mph 33.4 mph N/A   Scattered Clouds
4:52 PM 5.0 °F -14.2 °F -7.6 °F 56% 29.89 in 10.0 mi WNW 17.3 mph 26.5 mph N/A   Scattered Clouds
5:13 PM 5.0 °F -15.2 °F -9.4 °F 52% 29.91 in 10.0 mi WNW 19.6 mph 32.2 mph N/A   Scattered Clouds
5:33 PM 3.2 °F -13.9 °F -9.4 °F 56% 29.93 in 10.0 mi WNW 12.7 mph 24.2 mph N/A   Clear
5:52 PM 3.2 °F -14.6 °F -9.4 °F 56% 29.95 in 10.0 mi WNW 13.8 mph 25.3 mph N/A   Scattered Clouds
6:12 PM 3.2 °F -10.3 °F -9.4 °F 56% 29.96 in 10.0 mi WNW 8.1 mph 26.5 mph N/A   Scattered Clouds
6:19 PM 3.2 °F -11.3 °F -9.4 °F 56% 29.97 in 10.0 mi WNW 9.2 mph 26.5 mph N/A   Scattered Clouds
6:52 PM 3.2 °F -14.6 °F -7.6 °F 61% 29.99 in 10.0 mi WNW 13.8 mph 21.9 mph N/A   Overcast
7:13 PM 3.2 °F -13.1 °F -5.8 °F 66% 30.01 in 7.0 mi NW 11.5 mph 25.3 mph N/A   Overcast
7:33 PM 3.2 °F -13.1 °F -5.8 °F 66% 30.02 in 7.0 mi WNW 11.5 mph 23.0 mph N/A   Overcast
7:52 PM 3.2 °F -11.3 °F -5.8 °F 66% 30.04 in 5.0 mi WNW 9.2 mph 17.3 mph N/A   Haze
8:13 PM 3.2 °F -11.3 °F -5.8 °F 66% 30.05 in 5.0 mi WNW 9.2 mph 16.1 mph N/A   Haze
8:52 PM 3.2 °F -9.1 °F -5.8 °F 66% 30.07 in 5.0 mi WNW 6.9 mph - N/A   Haze
9:13 PM 3.2 °F -11.3 °F -5.8 °F 66% 30.09 in 7.0 mi WNW 9.2 mph 16.1 mph N/A   Scattered Clouds
9:33 PM 3.2 °F -11.3 °F -5.8 °F 66% 30.10 in 7.0 mi WNW 9.2 mph 17.3 mph N/A   Scattered Clouds
9:52 PM 1.4 °F -13.5 °F -7.6 °F 66% 30.11 in 7.0 mi WNW 9.2 mph 16.1 mph N/A   Scattered Clouds
10:13 PM 1.4 °F -13.5 °F -7.6 °F 66% 30.13 in 7.0 mi WNW 9.2 mph - N/A   Mostly Cloudy
10:33 PM 1.4 °F -13.5 °F -7.6 °F 66% 30.14 in 10.0 mi WNW 9.2 mph 16.1 mph N/A   Scattered Clouds
10:52 PM -0.4 °F -14.7 °F -9.4 °F 66% 30.15 in 10.0 mi WNW 8.1 mph - N/A   Scattered Clouds
11:13 PM -0.4 °F -13.4 °F -9.4 °F 66% 30.15 in 10.0 mi WNW 6.9 mph - N/A   Clear
11:33 PM -0.4 °F -13.4 °F -9.4 °F 66% 30.15 in 10.0 mi WNW 6.9 mph - N/A   Clear
11:52 PM -0.4 °F -14.7 °F -9.4 °F 66% 30.15 in 10.0 mi WNW 8.1 mph - N/A   Clear